DECAYED

STARLINK-1710, 46330 (Decayed)

Orbit data source: Space-Track

STARLINK-1710, 46330 was a payload satellite owned by SpaceX/Seattle (US) in LEO that was launched on Thu, 03 Sep 2020 UTC via an FALCON 9 launch vehicle from the Air Force Eastern Test Range (AFETR). Payload-class satellites include a variety of spacecraft equipped with specific instruments for various scientific and technological missions. These include communications satellites like Starlink; space stations such as the ISS; scientific satellites like the Hubble; Earth observation satellites from companies like Planet Labs, Umbra, and HawkEye 360; GPS; miniature CubeSats for education and research; and military/defense satellites.

Not visible in the next 10 days
Identifier
46330, 2020-062F
Orbit
Decayed
Country
Flag of USUS
Related business
Manufacturer
SpaceX/Seattle
Mission
Decayed Commercial Communications
Bus & Motor
STARLINK, Unknown motor
Mass
260 kg wet, ~248 kg dry
Launch date (UTC)
2020-09-03 (6 years ago)
Launch vehicle
FALCON 9
Launch site
Air Force Eastern Test Range (AFETR)
Object type
Payload
Rocket body
Debris
Shape & HBR
Box + 1 Pan, 10.1 m
Radar Cross Section
13.562 m², Large (>1 m²)

Expand to show TLE details & history
Last TLE update: 4 months ago

TLE from 4 months ago
0 STARLINK-1710
1 46330U 20062F   26062.25927530  .09296969  12294-4  76683-3 0  9990
2 46330  53.0162 309.3837 0006597 249.0657 110.9683 16.38910115304693
Epoch: 2026-03-03T06:13Z
TLE epoch observation values (Epoch: 2026-03-03T06:13:21.385Z)
Latitude
-0.00004°
Longitude
55.00367°
Altitude
171.177 km
Speed
7.804 km/s
True Right ascension
20h 37m 32s
True Declination
0° 00' 00"
Sunlit
Object was in daylight at epoch
Visualization orbit readout
Latitude
Unknown
Longitude
Unknown
Altitude
Unknown
Speed
Unknown
Apparent Right ascension
Unknown
Apparent Declination
Unknown
Sunlit
N/A
Visualization observer readout
Local Sidereal Time
23:20:41
Azimuth
Unknown
Elevation
Unknown
Doppler factor
Unknown
Orbital elements
Apogee altitude
173.315 km
Perigee altitude
164.677 km
Semi-major axis
6,547.133 km
Eccentricity
0.00066
Inclination
53.0162°
RAAN
309.3837°
Arg. of periapsis
249.0657°
True anomaly
111.03887°
Mean anomaly
110.9683°
Eccentric anomaly
111.00359°
Mean motion
4.097 °/min
Orbital period
87.87 mins
BSTAR
0.00076683
Loading maneuver chart data...
Computing Atmospheric mass density...

Documentation

Showing up to 5 results
|